Home > Weather > Firozpur > Past weeks

Flag for India Past Weather in Firozpur, Punjab, India — Yesterday and Last 2 Weeks

Now
75 °F

Passing clouds.


Feels Like: 74 °F
Forecast: 79 / 97 °F
Wind: 3 mph from Northeast

Location: Lahore Airport

Current Time: Aug 27, 2016 at 10:45:28 PM

Latest Report: Aug 27, 2016 at 10:00 PM


Visibility: 2 mi

Pressure: 29.80 "Hg

Humidity: 94%

Dew Point: 73 °F

Location of FirozpurLocation

Past Weather in Firozpur — Graph

°F

Firozpur Temperature Yesterday

Maximum temperature yesterday: 95 °F (at 2:25 PM)
Minimum temperature yesterday: 75 °F (at 12:25 AM)
Average temperature yesterday: 86 °F

High & Low Weather Summary for the Past Weeks

 TemperatureHumidityPressure
High100 °F (Aug 15, 3:25 PM)100% (Aug 24, 12:55 PM)29.83 "Hg (Aug 24, 12:55 PM)
Low72 °F (Aug 25, 7:25 AM)26% (Aug 21, 5:29 PM)29.42 "Hg (Aug 16, 5:55 PM)
Average86 °F72%29.60 "Hg
* Reported Aug 12 9:55 PM — Aug 27 9:30 PM, Firozpur, Weather by CustomWeather, © 2016

Note: Actual official high and low records may vary slightly from our data, if they occured in-between our weather recording intervals... More about our weather records

Advertising

Firozpur Weather History for the Previous 24 Hours

Scroll right to see more
 ConditionsComfort  
Time TempWeatherWind HumidityBarometerVisibility
9:30 PM
Sat, Aug 27
75 °FPassing clouds.No wind94%29.80 "Hg2 mi
9:00 PM75 °FPartly cloudy.3 mph94%29.77 "Hg2 mi
8:30 PM75 °FPartly cloudy.7 mph94%29.77 "Hg2 mi
8:00 PM73 °FThundershowers. Mostly cloudy.8 mph100%29.77 "Hg2 mi
7:30 PM75 °FThunderstorms. Mostly cloudy.7 mph100%29.77 "Hg2 mi
7:00 PM75 °FThunderstorms. Mostly cloudy.6 mph100%29.77 "Hg2 mi
6:30 PM75 °FThunderstorms. Mostly cloudy.7 mph100%29.77 "Hg2 mi
6:00 PM75 °FThunderstorms. Mostly cloudy.7 mph100%29.77 "Hg2 mi
5:30 PM75 °FThunderstorms. Mostly cloudy.6 mph100%29.65 "Hg2 mi
5:00 PM75 °FThundershowers. Mostly cloudy.3 mph100%29.77 "Hg2 mi
4:30 PM75 °FThunderstorms. Mostly cloudy.5 mph100%29.77 "Hg2 mi
4:00 PM75 °FThunderstorms. Mostly cloudy.9 mph100%29.74 "Hg2 mi
3:30 PM75 °FThunderstorms. Mostly cloudy.7 mph100%29.77 "Hg2 mi
2:55 PM75 °FThunderstorms. Mostly cloudy.7 mph100%29.77 "Hg2 mi
2:25 PM75 °FThunderstorms. Partly sunny.9 mph100%29.80 "Hg2 mi
1:55 PM75 °FThunderstorms. Partly sunny.10 mph94%29.80 "Hg2 mi
1:25 PM75 °FThunderstorms. Partly sunny.12 mph94%29.80 "Hg2 mi
12:25 PM79 °FThunderstorms. Mostly cloudy.14 mph94%29.83 "Hg2 mi
11:25 AM79 °FThunderstorms. Partly sunny.9 mph94%29.83 "Hg2 mi
10:55 AM79 °FThunderstorms. Broken clouds.12 mph94%29.83 "Hg2 mi
10:25 AM75 °FThunderstorms. Broken clouds.12 mph94%29.80 "Hg2 mi
9:55 AM73 °FThunderstorms. Mostly cloudy.7 mph100%29.80 "Hg1 mi
9:25 AM73 °FStrong thunderstorms. Mostly cloudy.6 mph100%29.83 "Hg1 mi
8:55 AM75 °FStrong thunderstorms. Mostly cloudy.12 mph100%29.83 "Hg1 mi
8:25 AM77 °FThunderstorms. Mostly cloudy.5 mph100%29.80 "Hg1 mi
7:55 AM81 °FThunderstorms. Mostly cloudy.12 mph94%29.80 "Hg1 mi
7:25 AM82 °FThunderstorms. Mostly cloudy.6 mph84%29.77 "Hg2 mi
6:55 AM82 °FThunderstorms. Broken clouds.7 mph84%29.77 "Hg2 mi
6:25 AM82 °FThunderstorms. Broken clouds.5 mph84%29.77 "Hg2 mi
5:55 AM82 °FThunderstorms. Partly cloudy.5 mph84%29.74 "Hg2 mi
5:25 AM82 °FThunderstorms. Partly cloudy.3 mph84%29.74 "Hg2 mi
4:55 AM82 °FThunderstorms. Passing clouds.3 mph84%29.74 "Hg2 mi
4:25 AM82 °FThunderstorms. Passing clouds.5 mph84%29.74 "Hg2 mi
3:55 AM84 °FThundershowers. Passing clouds.3 mph79%29.74 "Hg2 mi
3:29 AM84 °FPassing clouds.3 mph79%29.74 "Hg2 mi
2:59 AM84 °FPassing clouds.6 mph79%29.74 "Hg3 mi
1:59 AM84 °FPassing clouds.No wind79%29.74 "Hg3 mi
1:29 AM84 °FPassing clouds.No wind79%29.74 "Hg3 mi
12:59 AM86 °FPassing clouds.No wind75%N/A3 mi
12:29 AM86 °FPassing clouds.No wind75%29.74 "Hg3 mi
11:29 PM
Fri, Aug 26
86 °FPassing clouds.No wind75%29.71 "Hg3 mi
10:59 PM86 °FPassing clouds.3 mph75%29.71 "Hg3 mi
10:25 PM88 °FWarm.5 mph70%29.71 "Hg3 mi
Weather by CustomWeather, © 2016

See weather overviewHow to use our weather pages